Weather in Kokorevka

Russia / Bryansk Oblast     52°35′10″N   34°16′51″E
temp.,
°C
wind,
m/s
gust,
m/s
humid.,
%
clouds,
%
prec.,
mm/h
press.,
hPa
HPBL,
m
21 january, thu
thu2100:00−15s38910 0.0 1025220
03:00−15s4108927 0.0 1024280
06:00−15s4118773 0.0 1022295
09:00−13s5129286 0.1 1021387
12:00−9ssw61291100 0.6 1020518
15:00−5ssw61393100 2.1 1017583
18:00−3sw51393100 0.1 1017574
21:00−2sw51194100 0.1 1016551
22 january, fri
fri2200:00−2sw41095100 0.0 1016440
03:00−1sw4995100 0.0 1017429
06:00−2ssw4997100 0.0 1016423
09:00−1ssw4997100 0.0 1016430
12:000ssw41195100 0.0 1015470
15:00+1s51094100 0.0 1014453
18:000ssw41196100 0.0 1013471
21:000s4129597 0.0 1013413
23 january, sat
sat2300:00+1s5129799 0.0 1012459
03:00+1ssw51195100 0.0 1012540
06:00+1ssw51097100 0.0 1011542
09:00+2ssw41197100 0.0 1012546
12:00+2s41097100 0.0 1011540
15:00+2s41197100 0.0 1011528
18:00+2s41197100 0.0 1011460
21:00+3s41197100 0.0 1011484
24 january, sun
sun2400:00+3s41197100 0.0 1010419
03:00+3sse41197100 0.0 1010416
06:00+3sse41297100 0.0 1009439
09:00+4sse51496100 0.0 1009489
12:00+4sse61495100 0.0 1009616
15:00+5sse61689100 0.2 1007870
18:00+4sse71886100 0.4 10061074
21:00+4sse71787100 0.8 1005844
25 january, mon
mon2500:00+3sse61592100 0.1 1005683
03:00+4s41295100 0.6 1006465
06:00+3sse41197100 0.8 1006410
09:00+3s3997100 0.9 1007333
12:00+4s3996100 0.0 1008389
15:00+4se499599 0.0 1007422
18:00+4se51296100 0.0 1006589
21:00+4se61595100 1.4 1004564